Location: Busigny
(50.0342°N, 3.4671°E)
Time: 18:41:29
(UTC+00:00)

Daily predictions for brighter satellites

Satellite Brightness Start Highest point End
(mag) Time Altitude Azimuth Time Altitude Azimuth Time Altitude Azimuth
Cosmos 1092 Rocket 4.4 17:50:55 10° N 17:56:47 42° ENE 18:02:40 10° SE
BREEZE-M DEB (TANK) 3.4 17:56:26 10° W 17:58:56 40° SSW 18:04:37 10° SE
PSLV R/B 4.0 17:55:33 10° NNE 17:59:46 69° ESE 18:03:58 10° S
Cosmos 1464 Rocket 4.0 17:53:53 10° S 18:00:02 76° E 18:06:17 10° NNE
COSMO-SKYMED 1 2.5 17:57:08 10° NNE 18:01:30 76° ESE 18:05:50 10° S
Cosmos 2263 Rocket 4.2 17:58:01 10° W 18:02:43 27° NW 18:07:27 10° NNE
ERS-2 4.4 17:59:36 10° N 18:02:48 29° WNW 18:06:00 10° SW
COSMOS 2455 4.2 17:59:34 10° SE 18:03:07 16° ESE 18:06:41 10° ENE
Cosmos 1844 Rocket 2.9 17:58:11 10° SSW 18:03:46 80° WNW 18:09:26 10° NNE
Okean-O 2.6 17:59:50 10° SSE 18:04:16 82° ENE 18:08:44 10° NNW
Cosmos 1689 Rocket 2.3 18:02:29 10° N 18:05:27 72° WNW 18:08:23 10° SSW
Cosmos 2151 Rocket 3.6 18:01:26 10° S 18:05:54 73° E 18:10:26 10° NNE
CZ-2C R/B 3.4 18:00:41 10° SSE 18:06:07 58° ENE 18:11:49 10° N
H-2A R/B 2.4 18:03:09 10° SE 18:07:59 45° ENE 18:12:59 10° N
KORONAS-FOTON 3.8 18:09:07 10° N 18:13:03 72° E 18:16:57 10° SSE
Cosmos 2285 Rocket 4.0 18:08:37 10° SSW 18:14:54 72° ESE 18:21:17 10° NNE
Cosmos 1025 Rocket 3.9 18:11:29 10° NNW 18:15:48 56° W 18:20:07 10° S
SJ-6B 4.4 18:15:12 12° E 18:17:17 17° ENE 18:19:50 10° NNE
Cosmos 1300 Rocket 4.1 18:12:56 10° SSW 18:17:21 66° WNW 18:21:48 10° N
ISS -3.7 18:15:01 10° WNW 18:18:23 72° N 18:21:09 14° E
Cosmos 1805 3.4 18:17:29 10° S 18:21:17 52° E 18:25:08 10° NNE
TSX-5 4.2 18:17:39 10° SSW 18:21:47 72° ESE 18:27:12 10° NE
Cosmos 2278 Rocket 2.7 18:18:52 10° S 18:23:55 35° ESE 18:29:01 10° NE
Cosmos 1833 Rocket 2.7 18:24:22 10° NNW 18:30:02 70° ENE 18:35:40 10° SE
Cosmos 1125 Rocket 4.0 18:24:55 10° SSW 18:30:13 67° WNW 18:35:32 10° NNE
Cosmos 1844 4.2 18:25:18 10° SW 18:30:55 65° WNW 18:36:31 10° NNE
Nadezhda 4 Rocket 4.2 18:24:48 10° NNW 18:30:56 77° W 18:37:04 10° S
Cosmos 2251 Rocket 4.1 18:26:25 10° NNW 18:31:28 39° ENE 18:35:38 14° ESE
HJ-1C 3.3 18:28:27 10° SSE 18:31:43 63° ENE 18:35:01 10° N
CSL-04 Rocket 3.7 18:26:14 10° SSE 18:31:43 79° ENE 18:37:18 10° NNW
Okean 1 Rocket 3.1 18:28:00 10° S 18:32:27 65° E 18:36:54 10° NNE
Okean 1-7 Rocket 4.5 18:31:04 10° N 18:35:09 31° ENE 18:38:11 15° SE
COSMOS 2406 3.3 18:30:43 10° NNW 18:36:25 85° WSW 18:42:07 10° SSE
Cosmos 1340 Rocket 3.2 18:33:42 10° SSE 18:37:28 41° E 18:41:17 10° NNE
CSL-04 Debris 4.2 18:32:07 10° SSE 18:37:31 90° WSW 18:42:57 10° NNW
Lacrosse 4 Rocket 1.3 18:37:59 10° NNW 18:42:04 71° NE 18:45:15 16° SE
YAOGAN 1 3.3 18:38:01 10° S 18:42:16 57° W 18:46:34 10° NNW
Cosmos 1674 3.7 18:39:34 10° NNW 18:43:19 49° W 18:47:00 10° S
Lacrosse 5 rocket 1.6 18:39:45 10° NW 18:44:08 65° NNE 18:46:58 22° ESE
CZ-4C R/B 2.8 18:44:42 10° S 18:49:02 30° ESE 18:54:03 10° NE
Cosmos 1758 4.3 18:50:55 25° E 18:51:01 25° E 18:54:22 10° NNE
Exosat Rocket 3.7 18:46:18 10° SSW 18:51:23 73° WNW 18:56:36 10° NNE
CZ-4 R/B 3.2 18:51:37 10° SSW 18:55:26 35° W 18:59:13 10° NNW
Cosmos 1892 Rocket 3.5 18:53:24 10° N 18:57:45 64° ENE 19:01:33 13° SSE
SPOT 3 Rocket 4.5 18:57:22 24° E 18:59:06 29° ENE 19:03:32 10° N
ARGOS 3.1 18:54:04 10° SSE 18:59:27 88° ENE 19:04:54 10° NNW
FREGAT/IRIS 4.0 19:01:26 21° NNE 19:01:26 21° NNE 19:02:42 10° N
Meteor 1-24 Rocket 3.8 18:54:43 10° NNW 19:00:25 86° W 19:06:18 10° S
CZ-2C R/B 3.1 18:56:10 10° NNE 19:01:29 41° E 19:06:46 10° SSE
MOS 1 Rocket 2.9 18:57:12 10° NNE 19:01:32 78° ESE 19:05:49 10° S
APEX 3.5 19:00:08 10° S 19:03:15 37° ESE 19:03:27 36° ESE
Cosmos 1626 2.4 18:59:54 10° NNW 19:03:35 67° W 19:07:14 10° S
USA 186 1.7 19:04:00 37° SE 19:05:06 62° ENE 19:08:21 10° N
Cosmos 1544 Rocket 4.3 19:05:33 31° E 19:05:33 31° E 19:09:12 10° NNE
MOS 1 4.3 19:03:08 17° SE 19:07:29 60° ENE 19:13:07 10° N
Meteor 1-22 Rocket 4.3 19:01:48 10° S 19:07:49 83° E 19:13:59 10° NNE
Aureole 2 Rocket 2.8 19:05:51 10° SW 19:09:06 58° WNW 19:12:18 10° NNE
SL-14 R/B 3.6 19:05:41 10° NNW 19:09:40 69° W 19:13:39 10° S
Cosmos 1470 2.9 19:08:02 25° SSE 19:09:57 47° E 19:13:42 10° NNE
Resurs 01 Rocket 2.8 19:10:02 24° ENE 19:10:05 24° ENE 19:13:41 10° N
Ariane Rocket 2.9 19:06:14 17° SSE 19:10:06 68° ENE 19:15:11 10° N
Cosmos 1766 4.1 19:08:31 10° SSW 19:12:23 53° WNW 19:16:18 10° N
Cosmos 614 Rocket 4.4 19:07:41 10° NNW 19:12:33 41° ENE 19:14:03 33° E
Cosmos 2292 Rocket 4.4 19:11:03 10° NNE 19:12:45 23° NE 19:12:45 23° NE
NOSS 3-4 (A) 3.8 19:09:26 10° SW 19:15:22 65° NW 19:21:50 10° NE
NOSS 3-4 (C) 3.8 19:09:32 10° SW 19:15:28 66° NW 19:21:56 10° NE
SL-8 R/B 4.3 19:12:02 10° SW 19:16:26 36° SSE 19:17:03 35° SE
Cosmos 2098 Rocket 3.8 19:11:24 10° N 19:17:25 50° ENE 19:19:21 34° SE
Resurs 1-3 4.1 19:16:59 37° E 19:17:31 39° ENE 19:21:37 10° N
Cosmos 1733 4.1 19:14:09 10° SSW 19:17:52 50° WNW 19:21:36 10° N
MetOp-A 4.1 19:16:54 24° SSE 19:20:13 68° ENE 19:25:34 10° N
Cosmos 407 Rocket 4.1 19:17:47 10° N 19:22:33 36° NE 19:23:25 34° ENE
ARIANE 5 R/B 4.3 19:24:52 19° NE 19:24:52 19° NE 19:27:09 10° NNE
RESURS DK-1 2.2 19:20:06 10° SSW 19:24:15 84° ESE 19:28:26 10° NNE
ATLAS 3B R/B 3.4 19:18:56 10° NW 19:25:33 52° WSW 19:31:52 12° SSE
Cosmos 1726 4.4 19:28:38 13° NNE 19:28:38 13° NNE 19:29:10 10° NNE
SL-08 RB Rocket 3.9 19:23:00 14° S 19:26:53 71° WSW 19:31:23 10° NNW
Cosmos 1634 Rocket 4.1 19:20:52 10° SSW 19:27:03 77° W 19:33:19 10° N
deb Kosmos-1763 3.9 19:24:14 10° NNW 19:27:49 69° ENE 19:27:49 69° ENE
USA 290 3.8 19:28:17 10° N 19:30:11 27° NNE 19:30:11 27° NNE
Cosmos 1602 Rocket 4.1 19:30:47 10° N 19:34:33 41° NE 19:34:33 41° NE
Cosmos 1461 3.1 19:30:57 10° NW 19:35:46 80° NE 19:36:42 57° ESE
Cosmos 2082 Rocket 2.4 19:30:40 10° NNW 19:36:16 69° WSW 19:39:28 26° S
ATLAS 2AS CENTAUR R/B 3.5 19:30:10 10° WSW 19:38:05 63° NW 19:45:50 10° NE
Meteor 2-10 4.0 19:35:05 25° SSE 19:38:07 59° E 19:43:18 10° NNE
Cosmos 1626 Rocket 3.5 19:39:37 10° N 19:44:06 68° ENE 19:44:08 68° E
H-2A R/B 3.9 19:43:09 10° SSW 19:47:36 30° W 19:52:10 10° NNW
COSMOS 2455 2.7 19:42:06 10° SSW 19:48:08 80° ESE 19:54:12 10° NE
Cosmos 1455 Rocket 3.2 19:44:13 10° SSW 19:48:34 71° WNW 19:52:56 10° N
Cosmos 2084 3.8 19:46:08 10° NW 19:50:29 57° NE 19:50:29 57° NE
SJ-6B 3.4 19:50:50 44° SW 19:51:33 52° W 19:55:22 10° NNW
OBJECT-B 2.4 19:55:53 32° NNW 19:55:53 32° NNW 19:57:48 10° NNW
ISS -2.1 19:51:55 10° W 19:54:07 32° WSW 19:54:07 32° WSW
Cosmos 2279 Rocket 4.1 19:49:30 10° SSW 19:55:45 75° W 20:02:04 10° N
Meteor 1-21 Rocket 4.2 19:50:39 10° NNW 19:56:31 86° ENE 19:58:18 48° SSE
DMSP B5D2-2 4.0 19:53:25 10° NNE 19:58:45 85° WNW 20:04:02 10° SSW
Cosmos 1655 Rocket 4.0 19:54:46 10° NNW 20:01:06 80° W 20:04:13 32° S
ATLAS CENTAUR R/B 3.3 20:03:47 10° NNW 20:05:28 19° N 20:05:28 19° N
Cosmos 2278 Rocket 3.2 20:02:27 10° SW 20:07:53 47° NW 20:13:22 10° NNE
Gbstr 26 Del rocket 4.2 20:03:26 10° WSW 20:10:28 80° SSE 20:13:01 47° E
Cosmos 1190 Rocket 4.1 20:09:20 10° NNW 20:14:05 66° NNE 20:14:05 66° NNE
Lacrosse 4 Rocket 3.9 20:17:51 10° WNW 20:20:14 15° WSW 20:21:36 13° SW
Lacrosse 5 rocket 2.9 20:19:09 10° WNW 20:22:36 32° WSW 20:22:36 32° WSW
SPOT 5 4.5 20:27:32 28° NNE 20:27:32 28° NNE 20:30:40 10° N
MetOp-B 4.3 20:35:17 66° NNW 20:35:17 66° NNW 20:39:53 10° NNW
CZ-4C R/B 2.6 20:31:57 10° WSW 20:37:05 60° NW 20:43:20 10° NE
SPOT 3 Rocket 4.2 20:38:02 47° WSW 20:38:18 48° W 20:43:19 10° NNW
Cosmos 2266 Rocket 4.5 20:33:37 10° NNW 20:39:29 54° W 20:40:53 45° SW
Spot 2 Rocket 4.4 20:42:33 43° N 20:42:33 43° N 20:45:57 10° NNW
CZ-2C R/B 4.1 20:36:36 10° N 20:41:43 38° WNW 20:46:51 10° SW
Cosmos 1140 Rocket 4.1 20:37:39 10° NNW 20:41:42 54° NW 20:41:42 54° NW
Terra 3.9 20:45:21 19° NNE 20:45:21 19° NNE 20:47:00 10° N
Resurs 01 Rocket 3.1 20:47:36 36° NW 20:47:36 36° NW 20:50:39 10° NNW
Meteor 2-21 Rocket 4.5 20:40:12 10° N 20:45:56 77° NNW 20:45:56 77° NNW
USA 229 DEB 4.1 20:55:15 10° NW 21:02:11 59° NNE 21:02:11 59° NNE
USA 229 4.1 20:55:21 10° NW 21:02:17 59° NNE 21:02:17 59° NNE
NOSS 3-1 (A) 4.2 21:07:41 10° NW 21:14:31 58° NNE 21:14:31 58° NNE
Cosmos 2297 Rocket 4.3 21:23:03 10° N 21:25:58 19° NNE 21:25:58 19° NNE
ATLAS 2AS CENTAUR R/B 4.4 21:23:33 10° WNW 21:30:34 33° NNW 21:37:19 10° NE
COSMOS 2455 4.5 21:29:26 10° W 21:34:42 30° NW 21:40:01 10° NNE
NOSS 3-1 (C) 4.3 21:41:42 10° NW 21:47:29 61° WNW 21:47:29 61° WNW
Cosmos 1943 Rocket 4.5 22:11:46 17° N 22:11:46 17° N 22:13:12 10° NNE
CZ-4C R/B 4.2 22:22:02 10° WNW 22:26:55 27° NNW 22:32:38 10° NE
Cosmos 2227 Rocket 4.4 22:21:51 10° NNW 22:23:54 20° N 22:23:54 20° N
ATLAS 2AS CENTAUR R/B 4.3 23:16:58 10° NW 23:23:48 31° NNE 23:25:53 28° NE
